FENGYUN 1C DEB

Satellite information

Favourite Embed

Satellite Type and Status

DEBRISIN ORBIT

Key statistics

Satellite FENGYUN 1C DEB at a glance.

Uptime

9494

Days in orbit

Revolutions

≈ 14.1

Per day

Orbit

SSO

Sun Synchronous Orbit

Inclination

98.3

Latest

Satellite identification and parameters

Extended collection of information and parameters for FENGYUN 1C DEB.

Object identification

Identified? True

Debris? True

Object name: FENGYUN 1C DEB

International designator: 1999-025DCJ

Object number (NORAD): 33601

Object ID (CCSDS): 33601

Country: PEOPLES REPUBLIC OF CHINA (PRC)

Current information (Y/N): Y

RCS size: SMALL

Orbital parameters

Period: 102.362 minutes

Inclination: 98.2988 deg

SMA: 7248.582 km

Apoapsis: 986.855 km

Periapsis: 754.039 km

RAAN: 300.2318 deg

Eccentricy: 0.0160594

Argument of periapsis: 52.0076 deg

Mean anomaly: 309.5474 deg

Mean motion: 14.0677017 rev/day

Mean motion (dot): 0.00002871 rev/day2

B* drag term: 0.0015562 1/REarth

Two-line elements (TLE)

Creation date: May 7, 2025, 3:14 a.m.

Reference frame: TEME

Reference center: EARTH

Epoch: May 6, 2025, 10:06 a.m. UTC

TLE line 0: 0 FENGYUN 1C DEB

TLE line 1: 1 33601U 99025DCJ 25126.42147840 .00002871 00000-0 15562-2 0 9993

TLE line 2: 2 33601 98.2988 300.2318 0160594 52.0076 309.5474 14.06770170875815

Live tracking on map

Real-time ground track for satellite FENGYUN 1C DEB.

In-orbit conjunctions

A list of the most updated potential collisions computed for object FENGYUN 1C DEB.

Target Orbit TCA Probability of collision Miss distance Type
IRS P2 SSO 2024-10-23 07:32:02 0.0002037108 416.0 (m) PAYLOAD
IRIDIUM 38 LEO 2024-10-21 12:39:45 0.0002697452 886.0 (m) PAYLOAD

Associated space launch

Chinese polar orbiting meteorological satellite

FENGYUN 1C DEB was lifted into orbit during the mission ‘Long March 4B | Feng Yun 1C’, on board a Long March 4B space rocket.

The launch took place on May 10, 1999, 1:33 a.m. from Launch Complex 7.

For more information about the launch, click the button.

Launch to space Long March 4B | Feng Yun 1C
Long March 4B | Feng Yun 1C

Agency: N/A

Status: Launch Successful

Launch date: May 10, 1999, 1:33 a.m. UTC

Rocket: Long March 4B

Launch pad: Launch Complex 7

Location: Taiyuan Satellite Launch Center, People's Republic of China

...

Latest news about this satellite

There are no fresh news available about this satellite. Check back as we update our databases every day.


Newsletter sign-up

Weekly statistics, charts and insights to help you stay on top of the space industry.